Weather Roundup
Issued by NWS

Home | Current Version | Previous Version | Graphics & Text | Print | Product List | Glossary Off
Versions: 1 2 3 4 5 6 7 8 9 10 11 12 13 14 15 16 17 18 19 20 21 22 23 24 25 26 27 28 29 30 31 32 33 34 35 36 37 38 39 40 41 42 43 44 45 46 47 48 49 50

000
NZUS93 KARX 300210
HRRWXR

CURRENT HOURLY OBSERVATIONS ACROSS
MUCH OF THE UPPER MISSISSIPPI VALLEY
NATIONAL WEATHER SERVICE LA CROSSE WI
900 PM CDT WED JUL 29 2015


...SOUTHEAST MINNESOTA...


CITY           SKY/WX    TMP DP  RH WIND       PRES   REMARKS
ROCHESTER      CLEAR     66  58  75 W9        30.02R
ROCHESTER/MAYO FAIR      73  55  52 W10       30.00S
WINONA         CLEAR     77  54  44 W6        29.97R
AUSTIN         CLEAR     73  57  56 W7        30.03R
ALBERT LEA     CLEAR     72  57  60 W3        30.04R
DODGE CENTER   CLEAR     66  57  72 W7        30.02S
PRESTON        CLEAR     69  56  64 W9        30.03R
OWATONNA       CLEAR     66  57  72 W8        30.02R
FARIBAULT      CLEAR     72  57  60 SW6       30.00S
$$

...ELSEWHERE IN MINNESOTA...


CITY           SKY/WX    TMP DP  RH WIND       PRES   REMARKS
MINNEAPOLIS    CLEAR     78  54  43 W12       29.95R
INTNL FALLS    CLOUDY    65  56  72 W8G17     29.78S
DULUTH         PTCLDY    68  53  58 W9        29.83S
RED WING       CLEAR     73  54  49 W6        29.94R
REDWOOD FALLS  CLEAR     74  56  53 W9        30.01S
MANKATO        CLEAR     73  55  53 W7        30.01S
WORTHINGTON    CLEAR     68  57  68 W8        30.08S
FAIRMONT       CLEAR     72  54  53 W8        30.05S
$$

...SOUTHWEST WISCONSIN...


CITY           SKY/WX    TMP DP  RH WIND       PRES   REMARKS
LA CROSSE      CLEAR     76  54  46 W10       29.96S
PRAIRIE DU CHI CLEAR     74  53  48 W5        30.01R
BOSCOBEL       CLEAR     73  55  53 SW6       30.00R
LONE ROCK      CLEAR     72  54  53 W3        29.99R
PLATTEVILLE    CLEAR     69  56  63 W6        30.03R
FORT MC COY    CLEAR     73  52  47 SW5       29.97S
CAMP DOUGLAS   PTCLDY    70  55  60 W8        29.95S
VIROQUA        FAIR      69  55  60 W7        30.01R
WIS DELLS      CLEAR     72  51  47 W5        29.98R
$$

...ELSEWHERE IN WISCONSIN...


CITY           SKY/WX    TMP DP  RH WIND       PRES   REMARKS
MILWAUKEE      PTCLDY    79  51  37 W9        29.95R
MADISON        CLEAR     75  52  44 VRB3      29.98R
GREEN BAY      PTCLDY    71  56  58 SW6       29.89R
EAU CLAIRE     CLEAR     71  56  58 SW7       29.92R
BLACK RVR FLS  FAIR      72  53  51 SW5       29.95R
MEDFORD        CLEAR     69  55  62 W5        29.93R
WAUSAU         CLEAR     73  54  51 W13       29.90R
WIS RAPIDS     CLEAR     73  52  47 W6        29.95R
MARSHFIELD     PTCLDY    70  53  54 W8        29.93S
RICE LAKE      CLEAR     70  54  57 SW6       29.92S
$$

...NORTHEAST IOWA...


CITY           SKY/WX    TMP DP  RH WIND       PRES   REMARKS
DECORAH        CLEAR     72  59  64 VRB6G12   30.02R
MASON CITY     CLEAR     74  60  61 W12       30.06S
CHARLES CITY   CLEAR     70  61  73 W7        30.05S
OELWEIN        CLEAR     68  61  77 SW6       30.06R
$$

...ELSEWHERE IN IOWA...


CITY           SKY/WX    TMP DP  RH WIND       PRES   REMARKS
DES MOINES     PTCLDY    74  61  63 W8        30.10S
IOWA CITY      CLEAR     73  62  68 W5        30.08R
FORT DODGE     CLEAR     70  59  68 SW5       30.09S
$$

...NORTHERN ILLINOIS...


CITY           SKY/WX    TMP DP  RH WIND       PRES   REMARKS
CHICAGO-OHARE  PTCLDY    77  55  46 W8        29.99R
CHICAGO-MIDWAY CLEAR     81  54  39 W8        29.99R
MOLINE         CLEAR     72  59  63 SW5       30.05R
ROCKFORD       CLEAR     73  58  59 SW5       30.02R
PEORIA         CLEAR     75  62  64 W5        30.06R
$$

NOTE: "FAIR" INDICATES FEW OR NO CLOUDS BELOW 12,000 FEET WITH NO
SIGNIFICANT WEATHER AND/OR OBSTRUCTIONS TO VISIBILITY. WIND
SPEEDS ARE IN MILES-PER-HOUR.



USA.gov is the U.S. government's official web portal to all federal, state and local government web resources and services.